{"data":{"norad_id":65975,"epoch":"2026-09-20T13:42:56.058624Z","epoch_age_seconds":134252,"freshness":"FRESH","line1":"1 65975U 25230B   26263.57148216  .00000094  00000+0  76678-4 0  9997","line2":"2 65975  81.2994 123.9246 0000955  65.5854 294.5401 13.82052608 46972","mean_motion":13.82052608,"eccentricity":9.55e-5,"inclination_deg":81.2994,"raan_deg":123.9246,"arg_perigee_deg":65.5854,"mean_anomaly_deg":294.5401,"bstar":7.6678e-5,"rev_number":4697,"period_min":104.19284994396,"perigee_km":955.914934584,"apogee_km":957.31587229306,"semimajor_km":7334.7524034385,"source":"CELESTRAK","updated_at":"2026-09-21T09:00:15.685888Z"}}